ECISR LECU-LESO

Flight info

Callsign ECISR
Flight time N/A
Altitude 7500
Route VFR
Aircraft VL3/L-VGD/N

Departure

Time 2026-05-06 11:12
Airport Madrid-Cuatro Vientos Airport (LECU)

Arrival

Time N/A
Airport San Sebastián Airport (LESO)
Time Latitude Longitude Altitude Speed Heading
2026-05-06 11:08 40.36895 -3.77734 2255 ft 0 kts 121°
2026-05-06 11:10 40.36895 -3.77721 2255 ft 6 kts 70°
2026-05-06 11:10 40.36920 -3.77672 2254 ft 6 kts 43°
2026-05-06 11:10 40.36942 -3.77659 2255 ft 0 kts 16°
2026-05-06 11:11 40.36948 -3.77657 2255 ft 0 kts 11°
2026-05-06 11:11 40.36949 -3.77657 2255 ft 2 kts 11°
2026-05-06 11:11 40.37008 -3.77648 2255 ft 9 kts 353°
2026-05-06 11:11 40.37024 -3.77664 2255 ft 8 kts 273°
2026-05-06 11:12 40.37052 -3.78157 2280 ft 87 kts 274°
2026-05-06 11:12 40.37097 -3.79052 2390 ft 102 kts 274°
2026-05-06 11:12 40.37145 -3.79886 2825 ft 88 kts 274°
2026-05-06 11:12 40.37202 -3.80755 3154 ft 103 kts 275°
2026-05-06 11:13 40.37241 -3.81677 3736 ft 102 kts 272°
2026-05-06 11:13 40.37372 -3.82764 3789 ft 128 kts 293°
2026-05-06 11:13 40.38032 -3.83550 3862 ft 137 kts 338°
2026-05-06 11:13 40.38962 -3.83652 3849 ft 134 kts
2026-05-06 11:14 40.39873 -3.83548 3822 ft 129 kts
2026-05-06 11:14 40.40723 -3.83408 3640 ft 119 kts
2026-05-06 11:14 40.41514 -3.83301 3523 ft 109 kts
2026-05-06 11:14 40.42263 -3.83161 3363 ft 107 kts
2026-05-06 11:15 40.42987 -3.82980 3242 ft 109 kts 11°
2026-05-06 11:15 40.43730 -3.82736 3242 ft 111 kts 14°
2026-05-06 11:15 40.44472 -3.82488 3240 ft 112 kts 12°
2026-05-06 11:15 40.45228 -3.82272 3239 ft 111 kts 10°
2026-05-06 11:16 40.45991 -3.82080 3258 ft 119 kts
2026-05-06 11:16 40.46825 -3.81876 3614 ft 121 kts 11°
2026-05-06 11:16 40.47633 -3.81628 3865 ft 113 kts 13°
2026-05-06 11:16 40.48360 -3.81205 3974 ft 118 kts 28°
2026-05-06 11:17 40.49069 -3.80703 4151 ft 112 kts 26°
2026-05-06 11:17 40.49781 -3.80214 4352 ft 118 kts 27°
2026-05-06 11:17 40.50480 -3.79738 4861 ft 119 kts 26°
2026-05-06 11:17 40.51268 -3.79224 5256 ft 135 kts 20°
2026-05-06 11:18 40.52182 -3.79011 5466 ft 136 kts
2026-05-06 11:18 40.53122 -3.78796 5517 ft 141 kts
2026-05-06 11:18 40.54107 -3.78592 5636 ft 140 kts
2026-05-06 11:18 40.55058 -3.78426 5849 ft 140 kts
2026-05-06 11:19 40.56018 -3.78183 5939 ft 141 kts 12°
2026-05-06 11:19 40.56978 -3.77861 6006 ft 143 kts 17°
2026-05-06 11:19 40.57896 -3.77310 6005 ft 147 kts 30°
2026-05-06 11:19 40.58770 -3.76546 5909 ft 154 kts 36°
2026-05-06 11:20 40.59676 -3.75868 6052 ft 145 kts 24°
2026-05-06 11:20 40.60619 -3.75292 6364 ft 153 kts 25°
2026-05-06 11:20 40.61580 -3.74661 6622 ft 155 kts 26°
2026-05-06 11:20 40.62599 -3.73978 6569 ft 171 kts 26°
2026-05-06 11:21 40.63669 -3.73253 6566 ft 174 kts 27°
2026-05-06 11:21 40.64733 -3.72531 6568 ft 175 kts 27°
2026-05-06 11:21 40.65811 -3.71797 6576 ft 175 kts 27°
2026-05-06 11:21 40.66889 -3.71063 6580 ft 175 kts 27°
2026-05-06 11:22 40.67972 -3.70326 6592 ft 174 kts 27°
2026-05-06 11:22 40.69059 -3.69585 6568 ft 176 kts 27°
2026-05-06 11:22 40.70146 -3.68844 6564 ft 175 kts 27°
2026-05-06 11:22 40.71227 -3.68107 6568 ft 175 kts 27°
2026-05-06 11:23 40.72306 -3.67371 6624 ft 172 kts 27°
2026-05-06 11:23 40.73385 -3.66635 6573 ft 177 kts 27°
2026-05-06 11:23 40.74475 -3.65891 6561 ft 176 kts 27°
2026-05-06 11:23 40.75564 -3.65146 6562 ft 176 kts 27°
2026-05-06 11:24 40.76647 -3.64406 6596 ft 173 kts 27°
2026-05-06 11:24 40.77724 -3.63671 6556 ft 175 kts 27°
2026-05-06 11:24 40.78804 -3.62931 6544 ft 177 kts 27°
2026-05-06 11:24 40.79896 -3.62185 6552 ft 180 kts 27°
2026-05-06 11:25 40.81009 -3.61423 6556 ft 180 kts 27°
2026-05-06 11:25 40.82119 -3.60664 6557 ft 180 kts 27°
2026-05-06 11:25 40.83229 -3.59904 6579 ft 178 kts 27°
2026-05-06 11:25 40.84322 -3.59154 6629 ft 178 kts 27°
2026-05-06 11:26 40.85330 -3.58463 7233 ft 150 kts 27°
2026-05-06 11:26 40.86265 -3.57824 7537 ft 160 kts 27°
2026-05-06 11:26 40.87315 -3.57104 7560 ft 172 kts 27°
2026-05-06 11:26 40.88332 -3.56405 7999 ft 159 kts 27°
2026-05-06 11:27 40.89322 -3.55727 8280 ft 164 kts 27°
2026-05-06 11:27 40.90347 -3.55023 8500 ft 167 kts 27°
2026-05-06 11:27 40.91388 -3.54308 8768 ft 166 kts 27°
2026-05-06 11:27 40.92382 -3.53625 9139 ft 162 kts 27°
2026-05-06 11:28 40.93396 -3.52929 9392 ft 167 kts 26°
2026-05-06 11:28 40.94440 -3.52211 9606 ft 170 kts 27°
2026-05-06 11:28 40.95487 -3.51491 9831 ft 171 kts 27°
2026-05-06 11:28 40.96543 -3.50762 10008 ft 173 kts 27°
2026-05-06 11:29 40.97653 -3.49984 9919 ft 184 kts 27°
2026-05-06 11:29 40.98759 -3.49200 10057 ft 180 kts 28°
2026-05-06 11:29 40.99852 -3.48418 10247 ft 176 kts 28°
2026-05-06 11:29 41.00920 -3.47651 10459 ft 175 kts 28°
2026-05-06 11:30 41.01998 -3.46866 10559 ft 178 kts 28°
2026-05-06 11:30 41.02745 -3.45645 10739 ft 178 kts 75°
2026-05-06 11:30 41.02490 -3.44082 10785 ft 184 kts 131°
2026-05-06 11:30 41.01265 -3.43501 10504 ft 196 kts 173°
2026-05-06 11:31 40.99948 -3.43279 10006 ft 179 kts 173°
2026-05-06 11:31 40.98801 -3.42860 9144 ft 179 kts 163°
2026-05-06 11:31 40.97559 -3.42415 8151 ft 183 kts 167°
2026-05-06 11:31 40.96332 -3.42100 7238 ft 177 kts 172°
2026-05-06 11:32 40.95154 -3.41896 6781 ft 158 kts 172°
2026-05-06 11:32 40.94080 -3.41746 6433 ft 153 kts 175°
2026-05-06 11:32 40.93029 -3.41719 6187 ft 147 kts 182°
2026-05-06 11:32 40.91980 -3.41693 5762 ft 155 kts 174°
2026-05-06 11:33 40.90964 -3.41313 5492 ft 154 kts 158°
2026-05-06 11:33 40.89937 -3.40604 5365 ft 174 kts 149°
2026-05-06 11:33 40.88867 -3.39761 5159 ft 183 kts 149°
2026-05-06 11:33 40.87940 -3.38621 4969 ft 184 kts 122°
2026-05-06 11:34 40.87535 -3.37038 4865 ft 182 kts 99°
2026-05-06 11:34 40.87449 -3.35364 4687 ft 184 kts 90°
2026-05-06 11:34 40.87502 -3.33690 4498 ft 184 kts 89°
2026-05-06 11:34 40.87456 -3.32010 4381 ft 182 kts 97°
2026-05-06 11:35 40.87212 -3.30368 4195 ft 183 kts 105°
2026-05-06 11:35 40.86901 -3.28747 4079 ft 181 kts 104°
2026-05-06 11:35 40.86671 -3.27109 3929 ft 181 kts 101°
2026-05-06 11:35 40.86502 -3.25468 3802 ft 181 kts 92°
2026-05-06 11:36 40.86747 -3.23861 3701 ft 180 kts 67°
2026-05-06 11:36 40.87457 -3.22672 4231 ft 130 kts 38°
2026-05-06 11:36 40.87968 -3.22277 4610 ft 70 kts
2026-05-06 11:36 40.88412 -3.22350 4458 ft 78 kts 329°
2026-05-06 11:37 40.88574 -3.22764 4212 ft 95 kts 272°
2026-05-06 11:37 40.88458 -3.23644 3873 ft 102 kts 250°
2026-05-06 11:37 40.88114 -3.24294 3638 ft 78 kts 211°
2026-05-06 11:37 40.87626 -3.24534 3337 ft 71 kts 193°
2026-05-06 11:38 40.87163 -3.24624 3152 ft 67 kts 189°
2026-05-06 11:38 40.86703 -3.24706 3129 ft 60 kts 188°
2026-05-06 11:38 40.86481 -3.24744 3133 ft 0 kts 187°